Regional Weather Roundup
Issued by NWS Albany, NY

Home | Current Version | Previous Version | Graphics & Text | Print | Product List | Glossary Off
Versions: 1 2 3 4 5 6 7 8 9 10 11 12 13 14 15 16 17 18 19 20 21 22 23 24 25 26 27 28 29 30 31 32 33 34 35 36 37 38 39 40 41 42 43 44 45 46 47 48 49 50

000
ASUS41 KALY 200710
RWRALY

NEW YORK STATE HOURLY WEATHER ROUNDUP
NATIONAL WEATHER SERVICE ALBANY NY
300 AM EDT WED SEP 20 2017

NOTE: "FAIR" INDICATES FEW OR NO CLOUDS BELOW 12,000 FEET WITH NO
SIGNIFICANT WEATHER AND/OR NO OBSTRUCTIONS TO VISIBILITY.

NYZ032-033-038>043-046>054-057>066-NYZ062>081-082-084-200800-
EAST


CITY           SKY/WX    TMP DP  RH WIND       PRES   REMARKS
ALBANY         CLOUDY    63  60  90 N7        29.97F
GLENS FALLS    CLOUDY    64  60  87 N6        29.99F
POUGHKEEPSIE   MOCLDY    69  61  75 N6        29.89F
NEWBURGH       MOCLDY    70  64  83 N12       29.91F
MONTGOMERY     PTCLDY    69  62  78 NE13      29.90F
WHITE PLAINS   CLOUDY    70  63  78 N13G21    29.84F
ISLIP          CLOUDY    70  67  90 N18G28    29.77F
NEW YORK CITY  CLOUDY    72  65  78 N12       29.82F
CENTRAL PARK   CLOUDY    72  64  76 NE13G21   29.85F
$$

NYZ005>009-017-018-044>046-055-056-200800-
CENTRAL


CITY           SKY/WX    TMP DP  RH WIND       PRES   REMARKS
FULTON         CLEAR     60  59  96 CALM      30.00S FOG
SYRACUSE       PTCLDY    60  60 100 CALM      29.99S
ROME           CLEAR     59  58  96 CALM      30.01S
ELMIRA         FOG       59  59 100 SW5       30.00F VSB 1/4
BINGHAMTON     CLEAR     60  58  92 NE6       30.01S
MONTICELLO     CLOUDY    63  58  83 NW3       29.98S
$$

NYZ026>034-041>043-087-200800-
NORTH


CITY           SKY/WX    TMP DP  RH WIND       PRES   REMARKS
WATERTOWN      FOG       58  58 100 CALM      29.99S VSB 1/4
FORT DRUM      NOT AVBL
OGDENSBURG     FAIR      62  61  96 CALM      30.00S FOG
MASSENA        PTCLDY    59  58  96 CALM      30.01F
SARANAC LAKE   FOG       47  47 100 CALM      30.04F VSB 1/4
PLATTSBURGH    CLEAR     57  56  96 CALM      30.01F FOG
$$

NYZ001>004-010>016-019>021-085-200800-
WEST


CITY           SKY/WX    TMP DP  RH WIND       PRES   REMARKS
NIAGARA FALLS  CLEAR     64  60  87 E5        29.99S FOG
BUFFALO        MOCLDY    62  61  96 CALM      30.00S
DUNKIRK        PTCLDY    57  56  96 CALM      29.99S FOG
JAMESTOWN      CLEAR     63  58  83 CALM      30.03F
WELLSVILLE     FOG       59  57  93 CALM      30.06S VSB 1/4
ROCHESTER      CLEAR     60  59  96 CALM      30.01S
PENN YAN       FOG       61  59  93 SW3       30.02S VSB 1/4
$$

             KEY
       WCI = WIND CHILL INDEX
       VSB = VISIBILITY
       HX  = HEAT INDEX
$$



USA.gov is the U.S. government's official web portal to all federal, state and local government web resources and services.